Starlink 30292

operational
NORAD ID: 57844 Int'l Des: 2023-141 Owner: SPXS Country: US Constellation: starlink
LEOCIRCULAR

Über Starlink 30292

Beschreibung wird geladen...

Live-Position

3D-Globus wird geladen...

Nächste Überflüge

Höhenverlauf

Altitude vs Time

uPlot chart will show altitude changes over time

Zweizeiliger Elementsatz

1 57844U 23141E 26034.53122189 -.00001678 00000-0 -44552-4 0 9993
2 57844 53.1613 82.4079 0001296 93.5699 266.5450 15.30180812135105
Epoch: 3. Feb. 2026 • Age: 18 hours

Aktueller Status

Höhe 490.9 km
Geschwindigkeit 7.62 km/s
Subsatellitenpunkt -44.15°S, 65.16°E
Startdatum 12. Sept. 2023
Alter 2.3 years
Typ internet

Technische Details

Klassifizierung Payload
Masse 730.00 kg
Trockenmasse 700.00 kg
Gesamtmasse 730.00 kg
Länge 0.30 m
Durchmesser 4.10 m
Spannweite 29.00 m
Form Box + pan
Hersteller SPXS
Bus-Typ Starlink V2M
Phasenstatus In Orbit
Besitzer/Staat SPXS/US

Große Konstellationen

Loading constellations...